Location: Archemont
(49.1579°N, 1.7598°E)
Time: 16:55:30
(UTC+00:00)

Cosmos 1553 Rocket - Pass Details

Date: 03 February 2023
Orbit: 942 x 1007 km, 82.9° (Epoch: 31 March)

Event Time Altitude Azimuth Distance (km) Brightness Sun altitude
Rises 17:54:06 0° 160° (SSE) 3,597 6.9 -10.3°
Reaches altitude 10° 17:56:44 10° 153° (SSE) 2,661 6.1 -10.8°
Maximum altitude 18:02:14 37° 87° (E) 1,434 4.4 -11.6°
Drops below altitude 10° 18:07:50 10° 23° (NNE) 2,709 6.0 -12.5°
Sets 18:10:31 0° 15° (NNE) 3,670 6.8 -13.0°
